[[{"header":{"parameterUnit":"m.s-1","parameterCategory":1,"la1":30.2991,"la2":30.254,"lo1":-89.0895,"lo2":-89.0444,"dy":0.0017,"dx":0.0017,"nx":28,"ny":28,"refTime":"2024-07-22T03:00:00:Z","depth":0,"parameterNumber":2,"parameterNumberName":"U-component_of_WINDS"},"data":[0,0,0,0,0,0,0,0,0,0,0,0,0,0,0,0,0,0,0,0,0,0,0,0,0,0,0,0,0,0,0,0,0,0,0,0,0,0,0,0,0,0,0,0,0,0,0,0,0,0,0,0,0,0,0,0,0,0,-0.1121,-0.1121,0,-0.1155,-0.1155,-0.1155,-0.1134,-0.1133,-0.1132,-0.1131,-0.1169,-0.1171,-0.1173,0,0,0,0,0,0,0,0,0,0,0,0,0,-0.1043,-0.1045,-0.1121,-0.1121,-0.1122,-0.1155,-0.1155,-0.1156,-0.1135,-0.1133,-0.1132,-0.1131,-0.1169,-0.1171,-0.1173,0,0,0,0,0,0,0,0,0,0,0,0,0,-0.1077,-0.1045,-0.1121,-0.1115,-0.1115,-0.1155,-0.1155,-0.1156,-0.1135,-0.1133,-0.1132,-0.113,-0.1168,-0.1171,-0.1173,-0.1222,0,0,-0.1182,-0.1184,0,0,0,0,0,0,0,0,-0.1075,-0.108,-0.1116,-0.1116,-0.1115,-0.1139,-0.1142,-0.1178,-0.1135,-0.1127,-0.1131,-0.113,-0.116,-0.1164,-0.1174,-0.1223,-0.1225,-0.1183,-0.1184,-0.1186,-0.1186,0,0,0,0,0,0,0,-0.1073,-0.1079,-0.1134,-0.1116,-0.1116,-0.1113,-0.1116,-0.1148,-0.1152,-0.1128,-0.1126,-0.1131,-0.116,-0.1171,-0.1174,-0.1225,-0.1183,-0.1185,-0.1187,-0.1188,-0.132,-0.1321,0,0,0,0,0,0,-0.1071,-0.1077,-0.1133,-0.1135,-0.1091,-0.1115,-0.1119,-0.1133,-0.1152,-0.1153,-0.1132,-0.1129,-0.1167,-0.1171,-0.1176,-0.1235,-0.1186,-0.1188,-0.119,-0.1318,-0.132,-0.1322,0,0,0,0,0,0,-0.1069,-0.1076,-0.1132,-0.1106,-0.1113,-0.1118,-0.1134,-0.1134,-0.1145,-0.1154,-0.1155,-0.1142,-0.1166,-0.1172,-0.1211,-0.1236,-0.119,-0.1192,-0.1316,-0.1319,-0.1321,-0.1352,0,0,0,0,0,0,-0.1067,-0.1075,-0.1092,-0.1106,-0.1114,-0.1165,-0.1136,-0.1136,-0.115,-0.1147,-0.1164,-0.1165,-0.1165,-0.1207,-0.1214,-0.1239,-0.1195,-0.1314,-0.1317,-0.132,-0.1349,-0.1356,-0.1361,0,0,0,0,0,-0.1064,-0.11,-0.1093,-0.11,-0.1135,-0.1166,-0.1171,-0.1169,-0.1152,-0.117,-0.1176,-0.1165,-0.1232,-0.1211,-0.1219,-0.1245,-0.1312,-0.1316,-0.132,-0.1346,-0.1354,-0.1361,0,0,0,0,0,0,-0.1089,-0.1101,-0.1094,-0.1135,-0.115,-0.1163,-0.1185,-0.1177,-0.1197,-0.1194,-0.1191,-0.1196,-0.1237,-0.1245,-0.1221,-0.1294,-0.127,-0.1275,-0.1287,-0.1295,-0.1301,-0.1298,-0.1197,0,0,0,0,0,-0.1099,-0.1122,-0.1132,-0.1168,-0.1175,-0.1179,-0.1193,-0.119,-0.1205,-0.1212,-0.1221,-0.1238,-0.1263,-0.1279,-0.1303,-0.1351,-0.1355,-0.1373,-0.1379,-0.1384,-0.1389,-0.1417,-0.1426,-0.1335,-0.1335,-0.1335,0,0,-0.112,-0.113,-0.1145,-0.1173,-0.1184,-0.121,-0.1184,-0.1212,-0.1232,-0.1216,-0.1254,-0.1262,-0.1281,-0.1325,-0.1345,-0.1333,-0.1416,-0.1389,-0.1393,-0.1395,-0.1422,-0.1431,-0.1439,-0.1337,-0.1337,-0.1337,0,0,-0.1172,-0.1181,-0.1213,-0.1225,-0.1242,-0.1244,-0.1252,-0.1267,-0.1271,-0.1309,-0.1299,-0.1323,-0.1366,-0.138,-0.1393,-0.1454,-0.1445,-0.1462,-0.1494,-0.1522,-0.1529,-0.1535,-0.1558,-0.1566,-0.1467,-0.1467,-0.1467,0,-0.1197,-0.1234,-0.123,-0.1259,-0.1273,-0.126,-0.1293,-0.1305,-0.133,-0.134,-0.1326,-0.1381,-0.1393,-0.1441,-0.1457,-0.1467,-0.1477,-0.1459,-0.1528,-0.1534,-0.154,-0.1562,-0.1571,-0.1469,-0.1469,-0.1469,-0.1468,0,-0.1264,-0.129,-0.1314,-0.1337,-0.1354,-0.1385,-0.1388,-0.1405,-0.1402,-0.1407,-0.1447,-0.1461,-0.1488,-0.1499,-0.1496,-0.1549,-0.1541,-0.1528,-0.1503,-0.1551,-0.1572,-0.158,-0.1472,-0.1471,-0.1471,-0.147,0,0,-0.1331,-0.1354,-0.1362,-0.1374,-0.1393,-0.1414,-0.1446,-0.1472,-0.1488,-0.1506,-0.1534,-0.1571,-0.156,-0.1575,-0.1574,-0.1598,-0.1648,-0.1582,-0.1582,-0.1594,-0.1708,-0.1719,-0.1728,-0.1642,-0.1644,-0.1645,-0.1707,0,-0.1385,-0.1438,-0.1438,-0.1488,-0.1514,-0.1503,-0.1531,-0.1548,-0.1554,-0.1578,-0.1585,-0.1613,-0.1594,-0.1604,-0.1627,-0.1636,-0.1671,-0.1632,-0.167,-0.1671,-0.1665,-0.1739,-0.1749,-0.1807,-0.1715,-0.1717,-0.1718,0,-0.1454,-0.1475,-0.1528,-0.1545,-0.1556,-0.1581,-0.1606,-0.1628,-0.1648,-0.1651,-0.1669,-0.1665,-0.1699,-0.1674,-0.1723,-0.1697,-0.1713,-0.172,-0.1722,-0.1726,-0.1697,-0.1745,-0.1825,-0.1834,-0.173,-0.1729,-0.1728,0,-0.1499,-0.154,-0.1578,-0.1588,-0.1609,-0.1627,-0.1637,-0.1655,-0.1671,-0.1694,-0.1705,-0.1732,-0.1747,-0.1769,-0.1773,-0.1754,-0.1823,-0.1797,-0.1828,-0.1828,-0.1842,-0.1841,-0.1927,-0.1852,-0.1852,-0.1852,-0.1852,0,-0.156,-0.1593,-0.1598,-0.1621,-0.1659,-0.1659,-0.1697,-0.1706,-0.1723,-0.1749,-0.1742,-0.1767,-0.1771,-0.1798,-0.1802,-0.1843,-0.185,-0.1854,-0.1855,-0.1855,-0.1855,-0.1865,-0.1862,-0.1854,-0.1854,-0.1853,-0.1853,0,-0.1616,-0.1621,-0.1661,-0.1679,-0.1684,-0.1711,-0.1727,-0.175,-0.1757,-0.179,-0.1798,-0.1809,-0.184,-0.1847,-0.1884,-0.1887,-0.1936,-0.1933,-0.1929,-0.1929,-0.196,-0.1957,-0.2055,-0.2069,-0.1985,-0.1985,-0.1986,0,-0.1655,-0.168,-0.17,-0.1717,-0.1728,-0.1755,-0.1772,-0.1774,-0.1792,-0.1817,-0.1838,-0.1869,-0.1893,-0.1945,-0.1957,-0.1986,-0.1984,-0.2016,-0.1988,-0.1988,-0.1986,-0.1984,-0.1988,-0.2022,-0.2023,-0.2023,-0.2024,0,-0.1723,-0.1724,-0.1748,-0.1774,-0.1794,-0.1815,-0.1834,-0.1849,-0.1854,-0.1876,-0.1907,-0.1926,-0.1965,-0.1997,-0.2026,-0.2039,-0.2033,-0.2033,-0.2042,-0.2042,-0.2039,-0.2042,-0.1945,-0.203,-0.203,-0.2029,-0.2029,-0.2029,-0.1772,-0.1795,-0.1813,-0.1841,-0.1856,-0.1875,-0.1898,-0.1908,-0.1934,-0.1965,-0.1965,-0.2001,-0.2022,-0.2061,-0.2076,-0.2105,-0.2095,-0.2107,-0.2111,-0.2114,-0.2117,-0.2035,-0.211,-0.211,-0.211,-0.211,-0.211,0,-0.1841,-0.1853,-0.1878,-0.1906,-0.1928,-0.192,-0.1942,-0.1962,-0.1993,-0.2013,-0.2037,-0.2075,-0.2106,-0.2122,-0.2153,-0.2174,-0.2172,-0.2182,-0.2181,-0.2184,-0.2124,-0.2113,-0.2183,-0.2183,-0.2183,-0.2183,-0.2183,-0.2183,-0.1879,-0.1918,-0.1922,-0.197,-0.1981,-0.2015,-0.2029,-0.2047,-0.2063,-0.2105,-0.2131,-0.214,-0.216,-0.2192,-0.2222,-0.2225,-0.2238,-0.2249,-0.2252,-0.2195,-0.2188,-0.2181,-0.2171,-0.2252,-0.2252,-0.231,-0.231,-0.2311]},{"header":{"parameterUnit":"m.s-1","parameterCategory":1,"la1":30.2991,"la2":30.254,"lo1":-89.0895,"lo2":-89.0444,"dy":0.0017,"dx":0.0017,"nx":28,"ny":28,"refTime":"2024-07-22T03:00:00:Z","depth":0,"parameterNumber":3,"parameterNumberName":"V-component_of_WINDS"},"data":[0,0,0,0,0,0,0,0,0,0,0,0,0,0,0,0,0,0,0,0,0,0,0,0,0,0,0,0,0,0,0,0,0,0,0,0,0,0,0,0,0,0,0,0,0,0,0,0,0,0,0,0,0,0,0,0,0,0,3.673,3.673,0,3.6727,3.6727,3.6727,3.664,3.6638,3.6636,3.6634,3.6636,3.6638,3.664,0,0,0,0,0,0,0,0,0,0,0,0,0,3.6666,3.6668,3.673,3.673,3.673,3.6727,3.6727,3.6727,3.6641,3.6638,3.6635,3.6633,3.6635,3.6638,3.664,0,0,0,0,0,0,0,0,0,0,0,0,0,3.6682,3.6668,3.673,3.6686,3.6683,3.6727,3.6727,3.6727,3.6641,3.6638,3.6634,3.6631,3.6634,3.6637,3.6641,3.6728,0,0,3.665,3.6652,0,0,0,0,0,0,0,0,3.6681,3.6684,3.6693,3.669,3.6685,3.668,3.6705,3.6727,3.6642,3.6657,3.6634,3.663,3.6654,3.6655,3.6662,3.6728,3.6728,3.6651,3.6653,3.6654,3.6655,0,0,0,0,0,0,0,3.668,3.6684,3.6729,3.6693,3.6689,3.6668,3.6667,3.6709,3.6675,3.6656,3.6649,3.665,3.6651,3.6659,3.6662,3.6728,3.6651,3.6654,3.6656,3.6657,3.6863,3.6867,0,0,0,0,0,0,3.6684,3.6683,3.6729,3.6729,3.6674,3.6672,3.6671,3.6685,3.6674,3.6669,3.6653,3.6646,3.6655,3.6658,3.6661,3.6761,3.6654,3.6657,3.6659,3.686,3.6864,3.6868,0,0,0,0,0,0,3.6683,3.6689,3.6729,3.6704,3.6708,3.6677,3.6694,3.6687,3.6695,3.6671,3.6665,3.6667,3.6653,3.6657,3.6711,3.676,3.6659,3.6661,3.6856,3.6861,3.6866,3.6963,0,0,0,0,0,0,3.6681,3.6689,3.6721,3.6705,3.6709,3.6778,3.6697,3.6689,3.67,3.6691,3.6683,3.6679,3.665,3.6707,3.6714,3.6763,3.6664,3.6851,3.6858,3.6864,3.6955,3.6971,3.6984,0,0,0,0,0,3.6679,3.675,3.6723,3.6729,3.6749,3.6781,3.6784,3.6748,3.6705,3.6737,3.6721,3.6679,3.6753,3.6713,3.6721,3.6771,3.6848,3.6856,3.6864,3.6949,3.6968,3.6984,0,0,0,0,0,0,3.6775,3.6748,3.6717,3.6785,3.6786,3.6766,3.6806,3.677,3.6784,3.6776,3.6732,3.6731,3.6792,3.6787,3.6742,3.6854,3.6793,3.6803,3.6855,3.6873,3.6887,3.6887,3.6667,0,0,0,0,0,3.6804,3.6831,3.6806,3.6868,3.687,3.6838,3.6851,3.6823,3.6823,3.6824,3.6812,3.6815,3.6839,3.6856,3.6876,3.6954,3.6951,3.6992,3.7007,3.7019,3.7028,3.7067,3.7085,3.6894,3.6894,3.6894,0,0,3.6864,3.6852,3.6873,3.6887,3.6884,3.6914,3.6839,3.6875,3.6897,3.683,3.6879,3.6871,3.6871,3.6937,3.6966,3.6935,3.708,3.7029,3.7039,3.7041,3.7077,3.7095,3.7111,3.69,3.6899,3.6898,0,0,3.6989,3.6983,3.7033,3.7031,3.7026,3.7005,3.7017,3.7002,3.6994,3.7042,3.6992,3.7018,3.706,3.7062,3.7068,3.7191,3.7153,3.7199,3.7276,3.7314,3.7329,3.7342,3.7386,3.7402,3.7208,3.7209,3.7209,0,3.7065,3.7106,3.7064,3.7101,3.7109,3.7047,3.7097,3.7098,3.7102,3.711,3.7074,3.7124,3.712,3.7185,3.7214,3.7222,3.7235,3.72,3.733,3.7343,3.7355,3.7395,3.7412,3.7214,3.7214,3.7213,3.7213,0,3.7199,3.7229,3.727,3.7272,3.7284,3.7329,3.7294,3.7312,3.7282,3.7264,3.7314,3.7307,3.7324,3.7337,3.731,3.7398,3.7378,3.7338,3.7276,3.7379,3.7417,3.7432,3.7222,3.722,3.7219,3.7217,0,0,3.7386,3.7362,3.7378,3.7377,3.7367,3.739,3.7431,3.7445,3.7461,3.7465,3.7499,3.7535,3.7496,3.7503,3.7476,3.751,3.7606,3.7464,3.7463,3.749,3.7701,3.7732,3.7751,3.758,3.7583,3.7585,3.7701,0,3.7506,3.7573,3.7535,3.7608,3.7634,3.7574,3.761,3.7608,3.7592,3.7613,3.7596,3.7622,3.7569,3.7573,3.7604,3.7588,3.7648,3.7579,3.7612,3.7613,3.7613,3.777,3.7803,3.7913,3.7715,3.7718,3.772,0,3.7655,3.7663,3.7738,3.772,3.773,3.7763,3.7771,3.7792,3.7789,3.7774,3.7781,3.7745,3.7784,3.7723,3.7777,3.7731,3.7742,3.7736,3.7739,3.7741,3.7673,3.7777,3.7948,3.7964,3.7742,3.7741,3.7739,0,3.7783,3.7812,3.786,3.7862,3.7843,3.7867,3.7861,3.7853,3.7864,3.7872,3.7878,3.7893,3.7901,3.7913,3.7881,3.7839,3.7939,3.7875,3.7929,3.793,3.7954,3.7953,3.8129,3.7961,3.7961,3.796,3.796,0,3.7921,3.7969,3.7917,3.7947,3.7999,3.7954,3.8008,3.7995,3.7989,3.8015,3.7965,3.7992,3.7948,3.797,3.7946,3.7994,3.7998,3.7989,3.7982,3.7993,3.7994,3.8,3.7992,3.7965,3.7964,3.7963,3.7962,0,3.8073,3.804,3.8088,3.8065,3.806,3.81,3.808,3.8107,3.8086,3.8121,3.8127,3.8095,3.8119,3.8087,3.8109,3.8092,3.8158,3.814,3.8159,3.8153,3.8209,3.8204,3.8395,3.8418,3.8236,3.8238,3.8239,0,3.8163,3.8198,3.8178,3.8191,3.8186,3.8209,3.8218,3.8176,3.8188,3.8185,3.8212,3.8231,3.8243,3.8284,3.8264,3.8279,3.8261,3.8327,3.8263,3.8273,3.8262,3.826,3.8263,3.834,3.8342,3.8344,3.8346,0,3.8327,3.8308,3.8322,3.833,3.8342,3.8348,3.8349,3.8363,3.8319,3.8335,3.8357,3.8366,3.8386,3.8405,3.8415,3.841,3.8371,3.8365,3.8379,3.8391,3.84,3.8396,3.8194,3.8362,3.836,3.8359,3.8358,3.8357,3.845,3.8478,3.8467,3.8484,3.848,3.8482,3.8505,3.8486,3.8503,3.8514,3.8489,3.8517,3.8511,3.852,3.8518,3.854,3.8512,3.8532,3.8536,3.8542,3.855,3.8396,3.8542,3.8542,3.8541,3.8541,3.854,0,3.861,3.8599,3.8616,3.8618,3.8631,3.859,3.859,3.8604,3.8629,3.8626,3.8638,3.8663,3.868,3.8661,3.8675,3.8696,3.8679,3.8702,3.87,3.8699,3.8575,3.8562,3.8715,3.8715,3.8715,3.8715,3.8715,3.8715,3.8695,3.8739,3.8719,3.876,3.8749,3.8775,3.8778,3.8779,3.8776,3.8805,3.8818,3.8804,3.8795,3.8807,3.8822,3.8816,3.8823,3.8852,3.884,3.8725,3.8708,3.8692,3.8679,3.8854,3.8855,3.8962,3.8963,3.8964]}]]